www.pogodaiklimat.ru

Погода и климат >> Архив погоды >> Беларусь >> Ивацевичи


ПОГОДА в Ивацевичах

  • Прогноз погоды в Ивацевичах
  • Монитор погоды в Ивацевичах

АРХИВ ПОГОДЫ в Ивацевичах

Время (UTC), дата Ветер
(напр.,м/с)
 
Видим.   Явления Облачность Т
(С)
Тd
(С)
f
(%)
Тe
(С)
Тes
(С)
Комфортность P
(гПа)
Po
(гПа)
Тmin
(С)
Tmax
(С)
R
(мм)
R24
(мм)
S
(см)
18 14.05 С 3 20 км 9/9 800 м
[Sc]
+12.7 +9.3 80 +11 +11 1022.0 1003.2 +15.4
21 14.05 С 2 н/о н/о +11.7 +8.9 83 +11 +11 1022.0 1003.1
00 15.05 СВ 3 н/о н/о +11.4 +9.3 87 +10 +10 1021.0 1002.1
03 15.05 СВ 3 н/о н/о +10.6 +10.1 97 +8 +8 1020.0 1001.1 +10.5
06 15.05 СВ 3 6000 м слаб. ливневой дождь 10/10 600 м
[Cb calv]
+11.3 +10.7 96 +9 +9 1019.0 1000.1 +10.5 5
09 15.05 СВ 3 10 км в посл. час ливневой дождь 10/10 660 м
[Sc]
+12.6 +11.7 94 +11 +11 1019.0 1000.2
12 15.05 СВ 4 12 км в посл. час ливневой дождь 10/10 630 м
[Sc]
+14.8 +13.8 94 +14 +14 1019.0 1000.4
15 15.05 СВ 3 12 км {ливн. осадки} 10/10 630 м
[Sc]
+15.8 +14.3 91 +15 +15 1017.0 998.5
18 15.05 СВ 3 12 км {ливн. осадки} 9/9 700 м
[Sc]
+15.7 +14.6 93 +15 +15 1017.0 998.5 +17.3 9
21 15.05 В 3 н/о н/о +15.1 +13.5 90 +14 +14 1018.0 999.4
00 16.05 В 5
{11}
н/о н/о +13.7 +12.9 95 +12 +12 1018.0 999.3
03 16.05 В 4
{10}
н/о н/о +13.5 +13.0 97 +12 +12 1016.0 997.3 +13.2
06 16.05 В 4
{11}
10 км 10/10 600 м
[Sc]
+14.4 +13.6 95 +13 +13 1017.0 998.4 +13.2 9
09 16.05 В 4 20 км 9/8 800 м
[Cb calv Ac trans]
+17.0 +14.6 86 +17 +17 1018.0 999.5
12 16.05 ЮВ 4 20 км 10/10 660 м
[Cb calv]
+17.2 +14.1 82 +17 +17 1018.0 999.6
15 16.05 В 4 10 км слаб. ливневой дождь 10/10 600 м
[Cb calv]
+16.1 +15.0 93 +15 +15 1018.0 999.5
18 16.05 В 4 8000 м слаб. ливневой дождь 10/10 570 м
[Cb calv]
+15.0 +14.4 96 +14 +14 1018.0 999.4 +18.3 5
21 16.05 СВ 5
{10}
н/о н/о +14.4 +13.9 97 +13 +13 1017.0 998.4
00 17.05 В 6
{14}
н/о н/о +14.8 +14.2 96 +13 +13 1015.0 996.5
03 17.05 В 4
{10}
н/о н/о +14.6 +13.8 95 +13 +13 1013.0 994.5 +14.4
06 17.05 В 3
{13}
15 км 9/9 800 м
[Cb calv]
+15.4 +13.9 91 +15 +15 1015.0 996.5 +14.4 22
09 17.05 ЮВ 3 20 км {ливн. осадки} 9/9 800 м
[Cb calv]
+17.4 +14.5 83 +17 +17 1015.0 996.6
12 17.05 С 2 20 км {ливн. осадки} 10/10 800 м
[Sc]
+18.3 +15.5 84 +19 +19 1015.0 996.7
15 17.05 В 1 20 км 6/6 800 м
[Sc]
+22.1 +16.6 71 +26 +29 душно 1014.0 995.9
18 17.05 Ю 1 5000 м гроза, ливневой дождь 10/10 750 м
[Cb calv]
+18.3 +18.1 99 +20 +20 1014.0 995.7 +22.4 12
21 17.05 ЮВ 2 н/о н/о +17.9 +16.6 92 +18 +18 1015.0 996.7
00 18.05 В 2 н/о н/о +16.2 +14.6 90 +16 +16 1015.0 996.5
03 18.05 В 2 н/о н/о +15.5 +14.0 91 +15 +16 1015.0 996.5
06 18.05 В 2 10 км 10/10 800 м
[Cb calv]
+16.8 +15.5 92 +17 +17 1015.0 996.6 +15.0 32
09 18.05 В 3
{10}
20 км 9/9 800 м
[Sc]
+20.9 +15.9 73 +25 +25 комфорт 1014.0 995.9
12 18.05 ЮВ 4 20 км 9/8 800 м
[Cu med, cong Ac trans]
+23.4 +14.9 59 +27 +27 душно 1013.0 995.0
15 18.05 В 3 20 км 9/4 600 м
[Sc Ac trans Ci fib]
+23.0 +15.6 63 +27 +27 душно 1012.0 994.0
18 18.05 В 2 20 км 9/6 900 м
[Sc Ci fib]
+20.5 +14.2 67 +24 +24 комфорт 1012.0 993.9 +24.5
21 18.05 В 3 н/о н/о +17.6 +12.3 71 +18 +18 1013.0 994.7
00 19.05 СВ 2 н/о н/о +13.7 +10.3 80 +13 +13 1013.0 994.4
03 19.05 В 2 н/о н/о +13.2 +8.1 71 +13 +13 1013.0 994.4 +13.1
06 19.05 В 1 20 км 3/0
[Ci fib]
+17.8 +9.2 57 +19 +24 1012.0 993.7 +13.0
09 19.05 В 3 20 км 9/0 2000 м
[Ac trans Ci fib]
+22.2 +10.3 47 +24 +24 комфорт 1012.0 993.9
12 19.05 ЮВ 4
{11}
20 км 9/6 800 м
[Sc Ac trans Ci fib]
+22.6 +11.9 51 +25 +25 комфорт 1012.0 994.0
15 19.05 ЮВ 3
{10}
20 км в посл. час ливневой дождь 9/9 800 м
[Sc]
+21.3 +13.7 62 +24 +24 комфорт 1012.0 993.9
18 19.05 В 2 20 км {ливн. осадки} 9/9 800 м
[Sc]
+20.4 +14.5 69 +24 +24 комфорт 1012.0 993.9 +22.9 0.0
21 19.05 В 1 н/о н/о +17.0 +14.5 85 +18 +18 1012.0 993.7
00 20.05 В 3 н/о н/о +16.4 +11.5 73 +16 +16 1012.0 993.6
03 20.05 В 4 н/о н/о +15.8 +8.8 63 +15 +15 1012.0 993.5 +15.5
06 20.05 ЮВ 3 20 км слаб. ливневой дождь 9/8 700 м
[Cb calv Ac trans]
+17.1 +10.7 66 +17 +17 1012.0 993.6 +15.5 0.1
09 20.05 В 5
{10}
20 км {ливн. осадки} 4/3 600 м
[Cu med, cong Ac trans]
+19.8 +13.5 67 +21 +27 комфорт 1012.0 993.8
12 20.05 ЮВ 5-11
{11}
20 км {ливн. осадки} 8/8 840 м
[Cu med, cong]
+26.2 +16.1 54 +30 +30 душно 1010.0 992.3
15 20.05 ЮВ 5-10
{14}
20 км гроза, ливневой дождь 8/8 660 м
[Cb calv Ac trans]
+24.4 +14.8 55 +27 +27 жарко 1010.0 992.1
18 20.05 В 3
{10}
10 км 10 баллов +22.6 +14.4 60 +26 +26 жарко 1009.0 991.0 +26.6 0.1
21 20.05 ЮВ 3 н/о н/о +21.7 +11.7 53 +24 +24 комфорт 1009.0 991.0
00 21.05 В 2 н/о н/о +17.7 +13.0 74 +18 +18 1010.0 991.7
03 21.05 В 2 н/о н/о +16.0 +13.1 83 +16 +16 1009.0 990.6 +15.8
06 21.05 В 3 10 км 10 баллов +16.3 +14.3 88 +16 +16 1009.0 990.7 +15.4 5
09 21.05 В 4
{10}
10 км 10 баллов +21.4 +13.8 62 +24 +24 комфорт 1008.0 990.0
12 21.05 В 7
{13}
10 км 10 баллов +22.1 +14.2 61 +25 +25 комфорт 1007.0 989.1
15 21.05 В 7
{14}
10 км 10 баллов +16.3 +13.0 81 +15 +15 1007.0 988.7

 

Местоположение метеостанции Ивацевичи (Брестская область, Беларусь): широта 52.70 долгота 25.36 высота над уровнем моря 156 м.

В архиве по умолчанию представлена погода в Ивацевичах за последнюю неделю. Архивные данные за месяц целиком и за предыдущие месяцы, начиная с января 2011 года, Вы можете получить, выбрав интересующий диапазон дат из раскрывающегося списка и нажав кнопку "Ввод!".


*Определитесь, кто Вы:
робот инопланетянин человек

Внимание! Время в таблицах - всемирное. Для получения местного времени необходимо прибавить поправку, которая равна 3 ч.

Смотрите также архив погоды в соседних городах и на ближайших метеорологических станциях:

Погода в Дрогичине (Брестская область, Беларусь) (58 км)
Погода в Пружанах (Брестская область, Беларусь) (61 км)
Погода в Барановичах (Брестская область, Беларусь) (63 км)
Погода в Ганцевичах (Брестская область, Беларусь) (73 км)
Погода в Пинске (Брестская область, Беларусь) (80 км)
Погода в Волковыске (Гродненская область, Беларусь) (80 км)
Погода в Полесской (Брестская область, Беларусь) (101 км)
Погода в Новогрудке (Гродненская область, Беларусь) (105 км)
Погода в Любешове (Волынская область, Украина) (115 км)
Погода в Столбцах (Минская область, Беларусь) (126 км)

Пояснения к столбцам:

Ветер - указаны скорость ветра в м/с - средняя за 10 мин, порывы в срок и между сроками (в фигурных скобках) и направление, откуда дует ветер: С - северный, СВ - северо-восточный, В - восточный, ЮВ - юго-восточный, Ю - южный, ЮЗ - юго-западный, З - западный, СЗ - северо-западный.
Видимость - горизонтальная дальность видимости в метрах или километрах. При видимости от 1 до 10 км при отсутствии осадков обычно наблюдается дымка, при ухудшении видимости до 1 км и менее - туман. В сухую погоду видимость может ухудшаться дымом, пылью или мглою.
Явления - указаны атмосферные явления, наблюдавшиеся в срок или в последний час перед сроком; фигурными скобками обозначены явления, наблюдавшиеся между сроками (за 1-3 часа до срока); квадратными скобками обозначены град или гололедные отложения с указанием их диаметра в мм.
Облачность - указаны через наклонную черту общая и нижняя облачность в баллах и высота нижней границы облаков в метрах; квадратными скобками обозначены формы облаков: Ci - перистые, Cs - перисто-слоистые, Cc - перисто-кучевые, Ac - высококучевые, As - высокослоистые, Sc - слоисто-кучевые, Ns - слоисто-дождевые, Cu - кучевые, Cb - кучево-дождевые. Подробнее классификацию облаков см. в Атласе облаков (PDF).
T - Температура воздуха - температура, измеренная на высоте 2 м над землей.
Td - Температура точки росы - температура, при понижении до которой содержащийся в воздухе водяной пар достигнет насыщения.
f - Относительная влажность воздуха - влажноcть воздуха, измеренная на высоте 2 м над землей.
Te - Эффективная температура - температура, которую ощущает одетый по сезону человек в тени. Характеристика душности погоды. При расчете учитывается влияние влажности воздуха и скорости ветра на теплоощущения человека.
Tes - Эффективная температура на солнце - температура, которую ощущает человек, с поправкой на солнечный нагрев. Характеристика знойности погоды. Зависит от высоты солнца над горизонтом, облачности и скорости ветра. Ночью, в пасмурную погоду, а также при ветре 12 м/с и более поправка равна нулю.
P - Атмосферное давление - приведенное к уровню моря атмосферное давление.
Po - Атмосферное давление - измеренное на уровне метеостанции атмосферное давление.
Tmin - Минимальная температура - минимум температуры воздуха на высоте 2 м над землей.
Tmax - Максимальная температура - максимум температуры воздуха на высоте 2 м над землей.
R - Количество осадков - Количество выпавших осадков за период времени, мм. При наведении курсора мыши на число - период времени, за который выпало указанное количество осадков.
R24 - Количество осадков - Количество выпавших осадков за 24 часа, мм.
S - Снежный покров - Высота снежного покрова, см. При наведении курсора мыши на число - состояние снежного покрова и степень покрытия местности в баллах.